Location: Napa Soda Springs
(38.3907°N, 122.2794°W)
Time: 07:55:18
(UTC+00:00)

CZ-4B DEB - Pass Details

Date: 29 October 2020
Orbit: 840 x 862 km, 99.1° (Epoch: 02 December)

Event Time Altitude Azimuth Distance (km) Brightness Sun altitude
Rises 14:02:28 0° 13° (NNE) 3,418 7.4 -6.6°
Reaches altitude 10° 14:04:51 10° 14° (NNE) 2,475 6.7 -6.2°
Maximum altitude 14:10:21 90° 299° (WNW) 848 4.3 -5.1°
Drops below altitude 10° 14:15:47 10° 195° (SSW) 2,449 6.6 -4.1°
Sets 14:18:08 0° 196° (SSW) 3,379 7.3 -3.6°
